Cuero, Texas, United States (77954)
Lat: 29.09N, Lon: 97.29W
Wx Zone: TXZ224
Local Info
Past Weather Observations for Today

NOTE: This archive is for the closest National Weather Service station to Cuero. Information may differ from the station used for current weather conditions.

Click here for Long-term Archive

Time Weather Temperature Dewpoint Humidity Pressure Winds Precip Visibility
15:51
Partly Cloudy
88°F / 31°C 75°F / 24°C 66% 29.98 in
(1015 mb)
E 10.4 mph
(E 17 kph)
- 10SM
14:51
Partly Cloudy
88°F / 31°C 77°F / 25°C 70% 29.98 in
(1015 mb)
SE 10.4 mph
(SE 17 kph)
- 10SM
13:51
Mostly Cloudy
82°F / 28°C 77°F / 25°C 84% 29.98 in
(1015 mb)
E 9.2 mph
(E 15 kph)
0.00 in
(0.00 mm)
10SM
12:51
Mostly Cloudy
Light Rain
81°F / 27°C 73°F / 23°C 79% 30.01 in
(1016 mb)
E 4.6 mph
(E 7 kph)
0.00 in
(0.00 mm)
10SM
12:19
Clear
81°F / 27°C 72°F / 22°C 74% 30.01 in
(1016 mb)
E 5.8 mph
(E 9 kph)
- 10SM
11:51
Clear
Thunder Storms
81°F / 27°C 73°F / 23°C 79% 30.01 in
(1016 mb)
ENE 6.9 mph
(ENE 11 kph)
0.50 in
(12.70 mm)
10SM
11:34
Partly Cloudy
Thunder Storms
79°F / 26°C 72°F / 22°C 79% 30.01 in
(1016 mb)
SE 10.4 mph
(SE 17 kph)
0.50 in
(12.70 mm)
10SM
11:27
Mostly Cloudy
Thunder Storms
77°F / 25°C 70°F / 21°C 79% 30.04 in
(1017 mb)
SW 6.9 mph
(SW 11 kph)
0.50 in
(12.70 mm)
1 3/4SM
11:14
Overcast
Thunder Storms
75°F / 24°C 72°F / 22°C 89% 30.04 in
(1017 mb)
SSE 17.3 mph
(SSE 28 kph)
0.17 in
(4.32 mm)
3/4SM
11:06
Overcast
Thunder Storms
77°F / 25°C 70°F / 21°C 79% 30.04 in
(1017 mb)
SSW 21.9 mph
(SSW 35 kph)
0.05 in
(1.27 mm)
1 1/4SM
11:04
Overcast
Thunder Storms
79°F / 26°C 70°F / 21°C 74% 30.04 in
(1017 mb)
SSW 21.9 mph
(SSW 35 kph)
0.00 in
(0.00 mm)
2SM
11:02
Overcast
Thunder Storms
82°F / 28°C 68°F / 20°C 62% 30.04 in
(1017 mb)
SSW 18.4 mph
(SSW 30 kph)
0.00 in
(0.00 mm)
6SM
10:51
Mostly Cloudy
Thunder Storms
90°F / 32°C 73°F / 23°C 59% 30.01 in
(1016 mb)
SSW 12.7 mph
(SSW 20 kph)
- 10SM
09:51
Overcast
91°F / 33°C 75°F / 24°C 59% 30.01 in
(1016 mb)
SSE 10.4 mph
(SSE 17 kph)
- 10SM
08:58
Partly Cloudy
86°F / 30°C 75°F / 24°C 70% 30.01 in
(1016 mb)
S 6.9 mph
(S 11 kph)
- 10SM
08:51
Mostly Cloudy
86°F / 30°C 75°F / 24°C 70% 30.01 in
(1016 mb)
SSE 9.2 mph
(SSE 15 kph)
- 10SM
08:47
Mostly Cloudy
86°F / 30°C 75°F / 24°C 70% 30.01 in
(1016 mb)
SW 9.2 mph
(SW 15 kph)
- 10SM
07:51
Partly Cloudy
84°F / 29°C 75°F / 24°C 74% 30.01 in
(1016 mb)
SSE 5.8 mph
(SSE 9 kph)
- 10SM
06:54
Partly Cloudy
81°F / 27°C 75°F / 24°C 84% 30.01 in
(1016 mb)
SSE 4.6 mph
(SSE 7 kph)
- 10SM
06:51
Clear
81°F / 27°C 75°F / 24°C 84% 30.01 in
(1016 mb)
S 5.8 mph
(S 9 kph)
- 10SM
05:51
Clear
79°F / 26°C 75°F / 24°C 89% 29.98 in
(1015 mb)
S 3.5 mph
(S 6 kph)
- 8SM
04:51
Clear
79°F / 26°C 77°F / 25°C 94% 29.98 in
(1015 mb)
Calm - 8SM
03:51
Clear
77°F / 25°C 75°F / 24°C 94% 29.98 in
(1015 mb)
E 4.6 mph
(E 7 kph)
- 7SM
02:51
Clear
81°F / 27°C 77°F / 25°C 89% 29.98 in
(1015 mb)
Calm - 10SM
01:51
Clear
81°F / 27°C 79°F / 26°C 94% 29.95 in
(1014 mb)
S 5.8 mph
(S 9 kph)
- 10SM
00:51
Partly Cloudy
81°F / 27°C 79°F / 26°C 94% 29.95 in
(1014 mb)
SSE 10.4 mph
(SSE 17 kph)
- 10SM
Time Weather Temperature Dewpoint Humidity Pressure Winds Precip Visibility


Weather for websites

WeatherForYou.com, LLC is not responsible for any damages or problems caused by this service. Current weather conditions are obtained from the closest station including government and personal stations which may have varying degrees of accuracy. Weather forecasts are derived from the NOAA NDFD. Like all things, this site belongs to Jesus Christ... He just trusts us to maintain it. If you have any questions or comments email webmaster@weatherforyou.com

Copyright © 2016, WeatherForYou.com LLC. All rights reserved.